EW6851 Barcellona Pozzo Di Gotto IT current weather conditions

sailwx.info

Wind from 186 at 0 knots gusting 5

Air temperature 22.2° C
Dewpoint 18.6° C

Last reported at 2020-Aug-06 00:01 UTC.
Time now 2020-Aug-06 01:10 UTC

Location: N 38°09' E 015°13'.
View on Google Maps.

See reports from other nearby stations

  
Tides and Currents Weather Stations Pressure Air Temp Water Temp Dewpoint Dewpoint Depression Visibility Wind Speed Wind Dir Waves Ship Positions
date/time (UTC)wind fromknots sea level pressurealtimeterstation pressurevisibilityair tempwater tempwave heightnotes
2020-Aug-06 00:01 186 0 gusting 5 22.2
2020-Aug-05 23:56 186 0 gusting 0 22.2
2020-Aug-05 23:51 186 22.2
2020-Aug-05 23:46 218 0 gusting 4 22.2
2020-Aug-05 23:41 198 1 gusting 6 21.7
2020-Aug-05 23:36 165 0 gusting 6 21.7
2020-Aug-05 23:31 175 2 gusting 5 21.7
2020-Aug-05 23:26 177 4 gusting 14 21.7
2020-Aug-05 23:21 202 6 gusting 12 21.7
2020-Aug-05 23:16 211 2 gusting 13 22.8
2020-Aug-05 23:11 224 1 gusting 7 22.8
2020-Aug-05 23:06 250 23.3
2020-Aug-05 23:01 157 23.3
2020-Aug-05 22:56 157 23.3
2020-Aug-05 22:51 099 1 gusting 6 23.3
2020-Aug-05 22:46 059 23.3
2020-Aug-05 22:41 018 23.3
2020-Aug-05 22:36 018 23.3
2020-Aug-05 22:31 026 6 gusting 6 23.9
2020-Aug-05 22:26 24.4
2020-Aug-05 22:21 146 23.9
2020-Aug-05 22:16 160 3 gusting 5 23.9
2020-Aug-05 22:11 115 23.9
2020-Aug-05 22:06 149 3 gusting 4 23.9
2020-Aug-05 22:01 164 2 gusting 6 23.3
2020-Aug-05 21:56 119 23.3
2020-Aug-05 21:51 140 2 gusting 5 23.3
2020-Aug-05 21:46 094 1 gusting 7 22.8
2020-Aug-05 21:41 124 2 gusting 7 23.3
2020-Aug-05 21:36 124 2 gusting 7 23.3
2020-Aug-05 21:31 122 3 gusting 6 23.3
2020-Aug-05 21:26 115 1 gusting 4 23.3
2020-Aug-05 21:21 115 1 gusting 4 23.3
2020-Aug-05 21:16 115 0 gusting 3 23.9
2020-Aug-05 21:11 113 6 gusting 6 23.9
2020-Aug-05 21:06 140 0 gusting 5 23.3
2020-Aug-05 21:01 131 0 gusting 6 23.3
2020-Aug-05 20:56 114 0 gusting 6 23.3
2020-Aug-05 20:51 111 2 gusting 6 23.9
2020-Aug-05 20:46 116 3 gusting 7 23.9
2020-Aug-05 20:41 150 1 gusting 6 23.9
2020-Aug-05 20:36 137 1 gusting 6 24.4
2020-Aug-05 20:31 138 5 gusting 5 24.4
2020-Aug-05 20:26 139 3 gusting 5 24.4
2020-Aug-05 20:21 141 2 gusting 5 24.4
2020-Aug-05 20:16 155 3 gusting 6 24.4
2020-Aug-05 20:11 142 2 gusting 6 24.4
2020-Aug-05 20:06 155 3 gusting 8 24.4
2020-Aug-05 20:01 155 4 gusting 6 24.4
2020-Aug-05 19:56 152 3 gusting 5 23.9
2020-Aug-05 19:51 127 2 gusting 5 23.9
2020-Aug-05 19:46 182 4 gusting 6 23.9
2020-Aug-05 19:41 140 4 gusting 6 23.9
2020-Aug-05 19:36 136 3 gusting 6 23.3
2020-Aug-05 19:31 140 1 gusting 8 23.3
2020-Aug-05 19:26 132 6 gusting 8 23.3
2020-Aug-05 19:21 108 0 gusting 8 23.9
2020-Aug-05 19:16 132 5 gusting 8 23.9
2020-Aug-05 19:11 140 6 gusting 7 23.9
2020-Aug-05 19:06 166 4 gusting 9 23.9
2020-Aug-05 19:01 186 4 gusting 11 24.4
2020-Aug-05 18:56 219 13 gusting 13 25.0
2020-Aug-05 18:51 189 6 gusting 12 26.1
2020-Aug-05 18:46 290 7 gusting 7 26.1
2020-Aug-05 18:41 313 0 gusting 6 26.1
2020-Aug-05 18:36 256 5 gusting 6 26.1
2020-Aug-05 18:31 237 2 gusting 7 26.1
2020-Aug-05 18:26 246 1 gusting 6 26.1
2020-Aug-05 18:21 322 26.1
2020-Aug-05 18:16 261 1 gusting 7 26.1
2020-Aug-05 18:11 276 6 gusting 8 26.1
2020-Aug-05 18:06 265 26.1
2020-Aug-05 18:01 276 8 gusting 9 26.1
2020-Aug-05 17:56 293 0 gusting 8 26.1
2020-Aug-05 17:51 268 3 gusting 6 26.1
2020-Aug-05 17:46 290 0 gusting 8 26.7
2020-Aug-05 17:41 275 1 gusting 8 26.7
2020-Aug-05 17:36 264 4 gusting 6 26.7
2020-Aug-05 17:31 259 1 gusting 9 26.7
2020-Aug-05 17:26 279 26.7
2020-Aug-05 17:21 277 7 gusting 8 27.2
2020-Aug-05 17:16 290 0 gusting 6 27.2
2020-Aug-05 17:11 239 1 gusting 6 27.2
2020-Aug-05 17:06 260 4 gusting 9 27.2
2020-Aug-05 17:01 261 1 gusting 10 27.2
2020-Aug-05 16:56 209 2 gusting 7 27.2
2020-Aug-05 16:51 264 1 gusting 9 27.2
2020-Aug-05 16:46 272 0 gusting 9 27.2
2020-Aug-05 16:41 234 3 gusting 13 27.2
2020-Aug-05 16:36 205 0 gusting 12 27.8
2020-Aug-05 16:31 248 0 gusting 6 27.8
2020-Aug-05 16:26 248 4 gusting 8 27.2
2020-Aug-05 16:21 217 2 gusting 12 27.2
2020-Aug-05 16:16 200 3 gusting 11 27.2
2020-Aug-05 16:11 177 4 gusting 8 27.2
2020-Aug-05 16:06 242 0 gusting 9 27.2
2020-Aug-05 16:01 213 27.2
2020-Aug-05 15:56 221 4 gusting 10 27.2
2020-Aug-05 15:51 247 6 gusting 11 26.7
2020-Aug-05 15:46 209 26.7
2020-Aug-05 15:41 223 0 gusting 10 26.7
2020-Aug-05 15:36 219 1 gusting 8 26.1
2020-Aug-05 15:31 264 2 gusting 9 26.1
2020-Aug-05 15:26 208 3 gusting 11 26.1
2020-Aug-05 15:21 217 26.7
2020-Aug-05 15:16 263 7 gusting 19 26.7
2020-Aug-05 15:11 246 13 gusting 17 27.2
2020-Aug-05 15:06 270 4 gusting 13 27.2
2020-Aug-05 15:01 252 6 gusting 12 27.2
2020-Aug-05 14:56 262 13 gusting 13 27.8
2020-Aug-05 14:51 234 7 gusting 16 27.8
2020-Aug-05 14:46 271 1 gusting 13 28.3
2020-Aug-05 14:41 324 3 gusting 14 28.3
2020-Aug-05 14:36 211 6 gusting 13 28.3
2020-Aug-05 14:31 258 9 gusting 16 28.3
2020-Aug-05 14:26 234 0 gusting 13 28.3
2020-Aug-05 14:21 265 4 gusting 11 28.3
2020-Aug-05 14:16 254 9 gusting 16 28.3
2020-Aug-05 14:11 267 9 gusting 17 28.3
2020-Aug-05 14:06 217 3 gusting 12 28.3
2020-Aug-05 14:01 286 10 gusting 13 28.3
2020-Aug-05 13:56 227 5 gusting 12 28.3
2020-Aug-05 13:51 257 10 gusting 13 28.3
2020-Aug-05 13:46 257 3 gusting 13 28.3
2020-Aug-05 13:41 248 4 gusting 17 28.3
2020-Aug-05 13:36 319 5 gusting 18 28.3
2020-Aug-05 13:31 287 6 gusting 13 28.3
2020-Aug-05 13:26 267 6 gusting 17 28.3
2020-Aug-05 13:21 249 13 gusting 17 27.8
2020-Aug-05 13:16 263 11 gusting 13 28.3
2020-Aug-05 13:11 257 6 gusting 15 27.8
2020-Aug-05 13:06 328 5 gusting 15 27.8
2020-Aug-05 13:01 265 13 gusting 15 27.8
2020-Aug-05 12:56 283 7 gusting 16 27.8
2020-Aug-05 12:51 275 7 gusting 18 27.8
2020-Aug-05 12:46 254 1 gusting 13 27.8
2020-Aug-05 12:41 243 12 gusting 13 27.8
2020-Aug-05 12:36 256 1 gusting 11 27.8
2020-Aug-05 12:31 282 5 gusting 13 27.8
2020-Aug-05 12:26 255 13 gusting 14 27.8
2020-Aug-05 12:21 238 6 gusting 12 27.8
2020-Aug-05 12:16 273 4 gusting 14 27.8
2020-Aug-05 12:11 249 17 gusting 17 27.8
2020-Aug-05 12:06 263 14 gusting 18 27.8
2020-Aug-05 12:01 256 11 gusting 15 27.8
2020-Aug-05 11:56 279 6 gusting 13 27.8
2020-Aug-05 11:51 289 4 gusting 16 27.8
2020-Aug-05 11:46 247 9 gusting 13 28.3
2020-Aug-05 11:41 304 10 gusting 18 27.8
2020-Aug-05 11:36 272 5 gusting 19 27.8
2020-Aug-05 11:31 263 8 gusting 13 28.3
2020-Aug-05 11:26 257 0 gusting 14 27.8
2020-Aug-05 11:21 212 2 gusting 13 27.8
2020-Aug-05 11:16 242 7 gusting 13 27.2
2020-Aug-05 11:11 225 2 gusting 12 27.2
2020-Aug-05 11:06 256 7 gusting 14 27.2
2020-Aug-05 11:01 223 3 gusting 13 27.2
2020-Aug-05 10:56 277 4 gusting 17 27.2
2020-Aug-05 10:51 259 13 gusting 13 27.2
2020-Aug-05 10:46 284 6 gusting 13 27.2
2020-Aug-05 10:41 252 6 gusting 13 27.2
2020-Aug-05 10:36 298 6 gusting 14 27.2
2020-Aug-05 10:31 296 8 gusting 8 27.2
2020-Aug-05 10:26 215 3 gusting 12 26.7
2020-Aug-05 10:21 271 10 gusting 14 26.7
2020-Aug-05 10:16 287 1 gusting 12 26.7
2020-Aug-05 10:11 263 6 gusting 13 26.7
2020-Aug-05 10:06 216 4 gusting 12 27.2
2020-Aug-05 10:01 244 0 gusting 8 27.2
2020-Aug-05 09:56 265 3 gusting 10 27.2
2020-Aug-05 09:51 284 4 gusting 10 27.2
2020-Aug-05 09:46 253 4 gusting 11 27.2
2020-Aug-05 09:41 278 12 gusting 13 27.2
2020-Aug-05 09:36 265 12 gusting 13 27.2
2020-Aug-05 09:31 239 6 gusting 13 27.8
2020-Aug-05 09:26 294 11 gusting 13 27.8
2020-Aug-05 09:21 285 6 gusting 15 27.2
2020-Aug-05 09:16 250 4 gusting 13 27.2
2020-Aug-05 09:11 265 10 gusting 15 27.8
2020-Aug-05 09:06 268 3 gusting 13 27.2
2020-Aug-05 09:01 231 4 gusting 14 27.8
2020-Aug-05 08:56 251 6 gusting 16 27.8
2020-Aug-05 08:51 252 4 gusting 13 27.8
2020-Aug-05 08:46 263 7 gusting 15 27.2
2020-Aug-05 08:41 200 5 gusting 13 27.2
2020-Aug-05 08:36 280 7 gusting 11 27.2
2020-Aug-05 08:31 274 3 gusting 13 27.2
2020-Aug-05 08:26 308 5 gusting 12 27.2
2020-Aug-05 08:21 257 9 gusting 13 27.2
2020-Aug-05 08:16 240 8 gusting 13 27.2
2020-Aug-05 08:11 233 6 gusting 14 27.2
2020-Aug-05 08:06 293 7 gusting 13 27.2
2020-Aug-05 08:01 284 2 gusting 14 27.2
2020-Aug-05 07:56 215 3 gusting 13 27.2
2020-Aug-05 07:51 228 6 gusting 15 27.2
2020-Aug-05 07:46 275 6 gusting 14 27.2
2020-Aug-05 07:41 290 6 gusting 13 27.2
2020-Aug-05 07:36 250 6 gusting 15 27.2
2020-Aug-05 07:31 332 6 gusting 12 27.2
2020-Aug-05 07:26 279 7 gusting 12 26.7
2020-Aug-05 07:21 273 6 gusting 13 26.7
2020-Aug-05 07:16 263 8 gusting 13 26.7
2020-Aug-05 07:11 290 26.7
2020-Aug-05 07:06 269 7 gusting 11 26.7
2020-Aug-05 07:01 271 4 gusting 9 26.7
2020-Aug-05 06:56 241 2 gusting 7 26.7
2020-Aug-05 06:51 215 5 gusting 6 26.7
2020-Aug-05 06:46 214 1 gusting 6 26.7
2020-Aug-05 06:41 194 3 gusting 6 26.7
2020-Aug-05 06:36 200 1 gusting 4 26.1
2020-Aug-05 06:31 167 3 gusting 5 26.1
2020-Aug-05 06:26 209 0 gusting 3 26.1
2020-Aug-05 06:21 214 1 gusting 4 26.1
2020-Aug-05 06:16 188 5 gusting 6 26.1
2020-Aug-05 06:11 218 3 gusting 7 26.1
2020-Aug-05 06:06 171 3 gusting 5 25.6
2020-Aug-05 06:01 155 2 gusting 3 25.6
2020-Aug-05 05:56 155 1 gusting 5 25.6
2020-Aug-05 05:51 150 2 gusting 6 25.6
2020-Aug-05 05:46 188 25.6
2020-Aug-05 05:41 176 2 gusting 4 25.0
2020-Aug-05 05:36 176 1 gusting 6 25.0
2020-Aug-05 05:31 116 24.4
2020-Aug-05 05:26 116 1 gusting 3 24.4
2020-Aug-05 05:21 116 0 gusting 0 24.4
2020-Aug-05 05:16 116 24.4
2020-Aug-05 05:11 116 23.9
2020-Aug-05 05:06 118 1 gusting 4 23.9
2020-Aug-05 05:01 119 4 gusting 4 23.9
2020-Aug-05 04:56 112 2 gusting 3 23.9
2020-Aug-05 04:51 112 1 gusting 3 23.9
2020-Aug-05 04:46 111 23.9
2020-Aug-05 04:41 101 1 gusting 6 23.9
2020-Aug-05 04:36 115 1 gusting 6 23.9
2020-Aug-05 04:31 119 0 gusting 5 23.9
2020-Aug-05 04:26 142 1 gusting 4 23.9
2020-Aug-05 04:21 141 23.9
2020-Aug-05 04:16 141 2 gusting 5 23.9
2020-Aug-05 04:11 144 2 gusting 6 23.9
2020-Aug-05 04:06 179 3 gusting 3 24.4
2020-Aug-05 04:01 179 1 gusting 3 24.4
2020-Aug-05 03:56 179 2 gusting 4 24.4
2020-Aug-05 03:51 179 24.4
2020-Aug-05 03:46 193 1 gusting 5 24.4
2020-Aug-05 03:41 198 24.4
2020-Aug-05 03:36 227 24.4
2020-Aug-05 03:31 160 3 gusting 3 24.4
2020-Aug-05 03:26 160 1 gusting 5 24.4
2020-Aug-05 03:21 160 3 gusting 4 24.4
2020-Aug-05 03:16 160 3 gusting 3 24.4
2020-Aug-05 03:11 160 2 gusting 5 24.4
2020-Aug-05 03:06 166 24.4
2020-Aug-05 03:01 166 24.4
2020-Aug-05 02:56 166 24.4
2020-Aug-05 02:51 166 24.4
2020-Aug-05 02:46 166 24.4
2020-Aug-05 02:41 166 24.4
2020-Aug-05 02:36 166 0 gusting 2 24.4
2020-Aug-05 02:31 166 24.4
2020-Aug-05 02:26 166 24.4
2020-Aug-05 02:21 166 24.4
2020-Aug-05 02:16 166 24.4
2020-Aug-05 02:11 166 0 gusting 1 25.0
2020-Aug-05 02:06 166 25.0
2020-Aug-05 02:01 166 25.0
2020-Aug-05 01:56 127 2 gusting 3 25.0
2020-Aug-05 01:51 127 2 gusting 3 25.0
2020-Aug-05 01:46 127 25.0
2020-Aug-05 01:41 127 25.0
2020-Aug-05 01:36 127 1 gusting 3 25.0
2020-Aug-05 01:31 127 1 gusting 4 25.0
2020-Aug-05 01:26 170 1 gusting 3 25.0
2020-Aug-05 01:21 170 25.6
2020-Aug-05 01:16 170 25.6
2020-Aug-05 01:11 170 25.6
2020-Aug-05 01:06 170 25.6
2020-Aug-05 01:01 170 0 gusting 2 25.6
2020-Aug-05 00:56 170 25.6
2020-Aug-05 00:51 170 25.6
2020-Aug-05 00:46 170 25.6
2020-Aug-05 00:41 170 0 gusting 2 25.6
2020-Aug-05 00:36 170 2 gusting 2 25.6
2020-Aug-05 00:31 170 26.1
2020-Aug-05 00:26 170 26.1
2020-Aug-05 00:21 170 26.1
2020-Aug-05 00:16 170 0 gusting 2 26.1
2020-Aug-05 00:11 170 26.1
2020-Aug-05 00:06 170 26.1
2020-Aug-05 00:01 170 2 gusting 4 26.1
2020-Aug-04 23:56 169 1 gusting 4 26.1
2020-Aug-04 23:51 214 0 gusting 6 26.1
2020-Aug-04 23:46 183 1 gusting 5 26.1
2020-Aug-04 23:41 177 5 gusting 5 26.1
2020-Aug-04 23:36 175 2 gusting 5 26.1
2020-Aug-04 23:31 164 3 gusting 5 26.1
2020-Aug-04 23:26 201 2 gusting 5 26.1
2020-Aug-04 23:21 227 4 gusting 6 26.1
2020-Aug-04 23:16 218 4 gusting 6 26.1
2020-Aug-04 23:11 213 1 gusting 6 26.7
2020-Aug-04 23:06 220 4 gusting 6 26.7
2020-Aug-04 23:01 243 2 gusting 9 26.1
2020-Aug-04 22:56 250 6 gusting 10 26.1
2020-Aug-04 22:51 253 5 gusting 6 26.1
2020-Aug-04 22:46 201 0 gusting 4 26.1
2020-Aug-04 22:41 220 0 gusting 6 26.1
2020-Aug-04 22:36 271 5 gusting 8 25.6
2020-Aug-04 22:31 113 25.6
2020-Aug-04 22:26 113 1 gusting 1 25.6
2020-Aug-04 22:21 113 25.6
2020-Aug-04 22:16 113 25.6
2020-Aug-04 22:11 113 25.6
2020-Aug-04 22:06 114 0 gusting 3 25.6
2020-Aug-04 22:01 114 25.6
2020-Aug-04 21:56 116 26.1
2020-Aug-04 21:51 120 2 gusting 6 26.1
2020-Aug-04 21:46 162 26.1
2020-Aug-04 21:41 192 0 gusting 0 26.1
2020-Aug-04 21:36 192 26.1
2020-Aug-04 21:31 192 26.7
2020-Aug-04 21:26 195 26.7
2020-Aug-04 21:21 195 26.7
2020-Aug-04 21:16 195 26.7
2020-Aug-04 21:11 196 0 gusting 0 26.7
2020-Aug-04 21:06 196 26.7
2020-Aug-04 21:01 202 27.2
2020-Aug-04 20:56 217 27.2
2020-Aug-04 20:51 264 27.2
2020-Aug-04 20:46 264 0 gusting 3 27.2
2020-Aug-04 20:41 264 27.2
2020-Aug-04 20:36 264 27.2
2020-Aug-04 20:31 264 27.2
2020-Aug-04 20:26 265 2 gusting 4 27.2
2020-Aug-04 20:21 261 3 gusting 4 27.2
2020-Aug-04 20:16 283 3 gusting 3 27.2
2020-Aug-04 20:11 278 0 gusting 6 27.2
2020-Aug-04 20:06 281 3 gusting 5 27.2
2020-Aug-04 20:01 279 4 gusting 6 27.2
2020-Aug-04 19:56 232 2 gusting 6 27.2
2020-Aug-04 19:51 256 3 gusting 7 27.2
2020-Aug-04 19:46 263 3 gusting 7 27.2
2020-Aug-04 19:41 267 2 gusting 8 27.2
2020-Aug-04 19:36 263 3 gusting 6 27.2
2020-Aug-04 19:31 241 5 gusting 9 27.2
2020-Aug-04 19:26 248 6 gusting 9 27.2
2020-Aug-04 19:21 281 6 gusting 10 27.8
2020-Aug-04 19:16 255 6 gusting 9 27.8
2020-Aug-04 19:11 266 1 gusting 6 27.8
2020-Aug-04 19:06 290 6 gusting 12 27.8
2020-Aug-04 19:01 288 4 gusting 8 27.8
2020-Aug-04 18:56 280 27.8
2020-Aug-04 18:51 261 7 gusting 9 27.8
2020-Aug-04 18:46 273 6 gusting 8 27.8
2020-Aug-04 18:41 246 3 gusting 6 27.8
2020-Aug-04 18:36 252 5 gusting 12 27.8
2020-Aug-04 18:31 268 6 gusting 11 27.8
2020-Aug-04 18:26 243 0 gusting 6 27.8
2020-Aug-04 18:21 263 6 gusting 12 27.8
2020-Aug-04 18:16 225 5 gusting 7 27.8
2020-Aug-04 18:11 259 27.8
2020-Aug-04 18:06 277 4 gusting 6 27.8
2020-Aug-04 18:01 248 2 gusting 13 27.8
2020-Aug-04 17:56 257 27.8
2020-Aug-04 17:51 273 12 gusting 12 27.8
2020-Aug-04 17:46 267 6 gusting 6 27.8
2020-Aug-04 17:41 261 3 gusting 7 27.8
2020-Aug-04 17:36 255 4 gusting 6 28.3
2020-Aug-04 17:31 244 6 gusting 8 28.3
2020-Aug-04 17:26 249 6 gusting 8 28.3
2020-Aug-04 17:21 269 4 gusting 5 28.3
2020-Aug-04 17:16 225 2 gusting 6 28.3
2020-Aug-04 17:11 284 6 gusting 6 28.3
2020-Aug-04 17:06 267 4 gusting 7 28.3
2020-Aug-04 17:01 259 5 gusting 7 28.3
2020-Aug-04 16:56 223 28.3
2020-Aug-04 16:51 242 28.3
2020-Aug-04 16:46 267 4 gusting 8 28.3
2020-Aug-04 16:41 198 2 gusting 8 28.3
2020-Aug-04 16:36 267 3 gusting 9 28.3
2020-Aug-04 16:31 279 8 gusting 12 28.9
2020-Aug-04 16:26 221 4 gusting 15 28.9
2020-Aug-04 16:21 254 28.9
2020-Aug-04 16:16 263 2 gusting 12 28.9
2020-Aug-04 16:11 271 4 gusting 11 28.9
2020-Aug-04 16:06 218 3 gusting 10 28.9
2020-Aug-04 16:01 254 1 gusting 11 28.9
2020-Aug-04 15:56 216 4 gusting 10 28.9
2020-Aug-04 15:51 300 3 gusting 12 28.9
2020-Aug-04 15:46 215 3 gusting 9 28.9
2020-Aug-04 15:41 232 6 gusting 9 28.9
2020-Aug-04 15:36 234 3 gusting 11 28.9
2020-Aug-04 15:31 190 0 gusting 12 28.9
2020-Aug-04 15:26 225 6 gusting 10 28.9
2020-Aug-04 15:21 215 6 gusting 10 28.9
2020-Aug-04 15:16 230 3 gusting 12 28.9
2020-Aug-04 15:11 217 7 gusting 13 29.4
2020-Aug-04 15:06 234 6 gusting 12 29.4
2020-Aug-04 15:01 249 9 gusting 9 29.4
2020-Aug-04 14:56 267 29.4
2020-Aug-04 14:51 200 1 gusting 13 29.4
2020-Aug-04 14:46 298 2 gusting 11 30.0
2020-Aug-04 14:41 292 6 gusting 13 30.0
2020-Aug-04 14:36 241 6 gusting 13 30.0
2020-Aug-04 14:31 272 5 gusting 16 30.6
2020-Aug-04 14:26 229 16 gusting 16 31.1
2020-Aug-04 14:21 244 7 gusting 14 31.1
2020-Aug-04 14:16 284 2 gusting 17 30.6
2020-Aug-04 14:11 240 13 gusting 19 31.1
2020-Aug-04 14:06 274 13 gusting 13 31.1
2020-Aug-04 14:01 288 6 gusting 17 30.6
2020-Aug-04 13:56 278 6 gusting 13 31.1
2020-Aug-04 13:51 262 10 gusting 16 30.6
2020-Aug-04 13:46 294 4 gusting 14 30.6
2020-Aug-04 13:41 273 6 gusting 13 30.6
2020-Aug-04 13:36 279 15 gusting 17 30.6
2020-Aug-04 13:31 271 7 gusting 17 30.6
2020-Aug-04 13:26 284 6 gusting 15 31.1
2020-Aug-04 13:21 282 10 gusting 13 31.1
2020-Aug-04 13:16 302 2 gusting 13 31.1
2020-Aug-04 13:11 250 6 gusting 11 31.1
2020-Aug-04 13:06 223 1 gusting 6 31.1
2020-Aug-04 13:01 350 1 gusting 10 31.1
2020-Aug-04 12:56 214 2 gusting 5 31.7
2020-Aug-04 12:51 276 31.1
2020-Aug-04 12:46 259 1 gusting 4 31.1
2020-Aug-04 12:41 263 31.1
2020-Aug-04 12:36 318 3 gusting 6 31.1
2020-Aug-04 12:31 291 6 gusting 9 31.1
2020-Aug-04 12:26 316 6 gusting 11 31.1
2020-Aug-04 12:21 257 1 gusting 11 31.1
2020-Aug-04 12:16 292 0 gusting 11 30.6
2020-Aug-04 12:11 284 30.6
2020-Aug-04 12:06 271 5 gusting 11 30.6
2020-Aug-04 12:01 271 2 gusting 12 30.6
2020-Aug-04 11:56 302 30.6
2020-Aug-04 11:51 222 6 gusting 10 30.6
2020-Aug-04 11:46 286 2 gusting 13 30.6
2020-Aug-04 11:41 214 6 gusting 14 30.6
2020-Aug-04 11:36 294 4 gusting 13 31.1
2020-Aug-04 11:31 262 4 gusting 6 31.1
2020-Aug-04 11:26 288 1 gusting 11 31.7
2020-Aug-04 11:21 271 5 gusting 11 31.7
2020-Aug-04 11:16 251 1 gusting 9 31.7
2020-Aug-04 11:11 301 2 gusting 14 31.7
2020-Aug-04 11:06 309 7 gusting 9 31.7
2020-Aug-04 11:01 249 31.7
2020-Aug-04 10:56 253 0 gusting 13 31.7
2020-Aug-04 10:51 273 8 gusting 16 32.2
2020-Aug-04 10:46 248 11 gusting 12 32.2
2020-Aug-04 10:41 265 12 gusting 15 32.2
2020-Aug-04 10:36 288 7 gusting 18 32.2
2020-Aug-04 10:31 273 11 gusting 18 32.8
2020-Aug-04 10:26 263 10 gusting 15 33.3
2020-Aug-04 10:21 273 12 gusting 19 33.3
2020-Aug-04 10:16 284 13 gusting 14 33.3
2020-Aug-04 10:11 280 12 gusting 16 33.9
2020-Aug-04 10:06 237 4 gusting 15 34.4
2020-Aug-04 10:01 221 6 gusting 11 35.0
2020-Aug-04 09:56 269 6 gusting 10 35.0
2020-Aug-04 09:51 253 3 gusting 7 35.0
2020-Aug-04 09:46 255 4 gusting 10 35.0
2020-Aug-04 09:41 241 4 gusting 10 35.0
2020-Aug-04 09:36 244 3 gusting 8 34.4
2020-Aug-04 09:31 242 2 gusting 11 34.4
2020-Aug-04 09:26 216 6 gusting 6 34.4
2020-Aug-04 09:21 167 4 gusting 5 33.9
2020-Aug-04 09:16 027 33.3
2020-Aug-04 09:11 024 32.8
2020-Aug-04 09:06 024 2 gusting 2 32.2
2020-Aug-04 09:01 024 1 gusting 2 32.2
2020-Aug-04 08:56 024 32.2
2020-Aug-04 08:51 024 31.7
2020-Aug-04 08:46 024 31.7
2020-Aug-04 08:41 024 31.1
2020-Aug-04 08:36 024 0 gusting 2 30.6
2020-Aug-04 08:31 024 30.6
2020-Aug-04 08:26 024 30.0
2020-Aug-04 08:21 024 30.0
2020-Aug-04 08:16 024 30.0
2020-Aug-04 08:11 023 30.0
2020-Aug-04 08:06 019 30.0
2020-Aug-04 08:01 166 0 gusting 0 30.0
2020-Aug-04 07:56 166 30.0
2020-Aug-04 07:51 166 0 gusting 2 30.0
2020-Aug-04 07:46 166 30.0
2020-Aug-04 07:41 166 29.4
2020-Aug-04 07:36 166 29.4
2020-Aug-04 07:31 166 29.4
2020-Aug-04 07:26 166 29.4
2020-Aug-04 07:21 166 29.4
2020-Aug-04 07:16 166 29.4
2020-Aug-04 07:11 166 29.4
2020-Aug-04 07:06 166 29.4
2020-Aug-04 07:01 166 29.4
2020-Aug-04 06:56 166 29.4
2020-Aug-04 06:51 166 1 gusting 2 29.4
2020-Aug-04 06:46 175 29.4
2020-Aug-04 06:41 175 1 gusting 1 29.4
2020-Aug-04 06:36 175 28.9
2020-Aug-04 06:31 175 1 gusting 4 28.9
2020-Aug-04 06:26 139 0 gusting 3 28.9
2020-Aug-04 06:21 117 28.9
2020-Aug-04 06:16 117 28.9
2020-Aug-04 06:11 117 28.9
2020-Aug-04 06:06 117 1 gusting 1 28.3
2020-Aug-04 06:01 117 28.3
2020-Aug-04 05:56 117 28.3
2020-Aug-04 05:51 117 27.8
2020-Aug-04 05:46 117 27.8
2020-Aug-04 05:41 117 27.2
2020-Aug-04 05:36 117 27.2
2020-Aug-04 05:31 117 0 gusting 3 27.2
2020-Aug-04 05:26 117 1 gusting 3 27.2
2020-Aug-04 05:21 116 2 gusting 2 27.2
2020-Aug-04 05:16 116 0 gusting 3 26.7
2020-Aug-04 05:11 116 1 gusting 2 26.7
2020-Aug-04 05:06 116 1 gusting 2 26.7
2020-Aug-04 05:01 116 26.7
2020-Aug-04 04:56 117 26.7
2020-Aug-04 04:51 117 26.7
2020-Aug-04 04:46 117 2 gusting 2 26.7
2020-Aug-04 04:41 117 26.7
2020-Aug-04 04:36 117 1 gusting 2 26.7
2020-Aug-04 04:31 117 1 gusting 4 26.7
2020-Aug-04 04:26 119 1 gusting 6 26.7
2020-Aug-04 04:21 131 26.7
2020-Aug-04 04:16 131 2 gusting 4 26.7
2020-Aug-04 04:11 131 1 gusting 3 26.7
2020-Aug-04 04:06 131 2 gusting 5 26.7
2020-Aug-04 04:01 130 26.7
2020-Aug-04 03:56 130 27.2
2020-Aug-04 03:51 130 27.2
2020-Aug-04 03:46 130 27.2
2020-Aug-04 03:41 130 27.2
2020-Aug-04 03:36 130 27.2
2020-Aug-04 03:31 130 27.2
2020-Aug-04 03:26 130 27.2
2020-Aug-04 03:21 130 27.2
2020-Aug-04 03:16 130 27.2
2020-Aug-04 03:11 130 27.2
2020-Aug-04 03:06 130 27.2
2020-Aug-04 03:01 130 27.2
2020-Aug-04 02:56 130 27.2
2020-Aug-04 02:51 130 27.2
2020-Aug-04 02:46 130 27.2
2020-Aug-04 02:41 130 27.2
2020-Aug-04 02:36 130 1 gusting 2 27.2
2020-Aug-04 02:31 130 27.8
2020-Aug-04 02:26 130 27.2
2020-Aug-04 02:21 130 27.2
2020-Aug-04 02:16 130 27.2
2020-Aug-04 02:11 130 27.2
2020-Aug-04 02:06 130 27.2
2020-Aug-04 02:01 130 27.2
2020-Aug-04 01:56 130 27.2
2020-Aug-04 01:51 130 27.2
2020-Aug-04 01:46 130 26.7
2020-Aug-04 01:41 130 0 gusting 2 26.7
2020-Aug-04 01:36 130 2 gusting 2 26.7
2020-Aug-04 01:31 130 26.7
2020-Aug-04 01:26 130 26.7
2020-Aug-04 01:21 134 2 gusting 5 26.1
2020-Aug-04 01:16 094 1 gusting 6 26.1
2020-Aug-04 01:11 119 6 gusting 6 26.1
2020-Aug-04 01:06 081 2 gusting 6 26.1
2020-Aug-04 01:01 098 2 gusting 6 26.1